Weather History for Kingstree, SC

Change the Weather History Date:

Sunday, September 9, 2012

  Actual Average Record
Temperature  
Mean Temperature 73 °F -  
Max Temperature 82 °F 87 °F 89 °F (2013)
Min Temperature 64 °F 62 °F 57 °F (2011)
Cooling Degree Days 8    
Growing Degree Days 23 (Base 50)    
Moisture  
Dew Point 71 °F    
Average Humidity 89    
Maximum Humidity 100    
Minimum Humidity 62    
Precipitation  
Precipitation 0.00 in - - ()
Sea Level Pressure  
Sea Level Pressure 29.87 in    
Wind  
Wind Speed 2 mph (NNW)    
Max Wind Speed 7 mph    
Max Gust Speed -    
Visibility 9 miles    
Events Rain , Thunderstorm    
Averages and records for this station are not official NWS values.
T = Trace of Precipitation, MM = Missing Value Source: NWS Daily Summary

Daily Weather History Graph

Daily Weather History Graph

Search for Another Location

Airport:

Trip Planner

Search our weather history database for the weather conditions in past years. The results will help you decide how hot, cold, wet, or windy it might be!

Date:

Astronomy

Sep. 09, 2012 Rise Set
Actual Time 6:59 AM EDT 7:33 PM EDT
Civil Twilight 6:33 AM EDT 7:58 PM EDT
Nautical Twilight 6:04 AM EDT 8:28 PM EDT
Astronomical Twilight 5:34 AM EDT 8:58 PM EDT
Moon 12:39 AM EDT (9/9) 3:05 PM EDT (9/9)
Length of Visible Light 13h 24m
Length of Day
12h 34m
Last Quarter, 39% of the Moon is Illuminated
Sep 9
Last Quarter
Sep 15
New
Sep 22
First Quarter
Sep 29
Full
Oct 8
Last Quarter

Hourly Weather History & Observations

Time (EDT) Temp. Heat Index Dew Point Humidity Pressure Visibility Wind Dir Wind Speed Gust Speed Precip Events Conditions
12:35 AM 75.2 °F - 75.2 °F 100% 29.80 in 10.0 mi Calm Calm - N/A Thunderstorm Unknown
12:55 AM 75.2 °F - 75.2 °F 100% 29.80 in 10.0 mi Calm Calm - N/A Rain Rain
1:15 AM 75.2 °F - 75.2 °F 100% 29.80 in 7.0 mi Calm Calm - N/A Rain Light Rain
2:15 AM 75.2 °F - 75.2 °F 100% 29.79 in 10.0 mi Calm Calm - N/A   Overcast
2:35 AM 75.2 °F - 75.2 °F 100% 29.79 in 10.0 mi Calm Calm - N/A   Overcast
2:55 AM 75.2 °F - 75.2 °F 100% 29.79 in 3.0 mi Calm Calm - N/A   Heavy Drizzle
3:15 AM 75.2 °F - 75.2 °F 100% 29.79 in 3.0 mi Calm Calm - N/A Rain Heavy Rain
3:35 AM 73.4 °F - 73.4 °F 100% 29.79 in 4.0 mi Calm Calm - N/A Rain Heavy Rain
3:55 AM 73.4 °F - 73.4 °F 100% 29.79 in 3.0 mi Calm Calm - N/A Rain Rain
4:15 AM 73.4 °F - 73.4 °F 100% 29.79 in 5.0 mi Calm Calm - N/A   Drizzle
4:35 AM 73.4 °F - 73.4 °F 100% 29.78 in 4.0 mi Calm Calm - N/A Rain Heavy Rain
4:55 AM 73.4 °F - 73.4 °F 100% 29.79 in 7.0 mi West 3.5 mph - N/A   Light Drizzle
5:15 AM 73.4 °F - 73.4 °F 100% 29.79 in 10.0 mi Calm Calm - N/A   Overcast
5:35 AM 73.4 °F - 73.4 °F 100% 29.80 in 10.0 mi WNW 4.6 mph - N/A   Overcast
5:55 AM 73.4 °F - 73.4 °F 100% 29.81 in 10.0 mi NNW 6.9 mph - N/A   Overcast
6:15 AM 71.6 °F - 71.6 °F 100% 29.81 in 10.0 mi North 4.6 mph - N/A   Overcast
6:35 AM 71.6 °F - 71.6 °F 100% 29.82 in 10.0 mi North 4.6 mph - N/A   Overcast
6:55 AM 69.8 °F - 69.8 °F 100% 29.82 in 10.0 mi NNW 4.6 mph - N/A   Overcast
7:15 AM 69.8 °F - 69.8 °F 100% 29.83 in 10.0 mi NNE 4.6 mph - N/A   Overcast
8:15 AM 69.8 °F - 69.8 °F 100% 29.85 in 10.0 mi North 4.6 mph - N/A   Mostly Cloudy
8:35 AM 71.6 °F - 71.6 °F 100% 29.86 in 10.0 mi North 4.6 mph - N/A   Overcast
9:15 AM 71.6 °F - 71.6 °F 100% 29.86 in 10.0 mi North 6.9 mph - N/A   Overcast
9:35 AM 71.6 °F - 71.6 °F 100% 29.88 in 10.0 mi North 5.8 mph - N/A   Overcast
9:55 AM 71.6 °F - 71.6 °F 100% 29.88 in 10.0 mi NNW 4.6 mph - N/A   Overcast
10:15 AM 71.6 °F - 71.6 °F 100% 29.88 in 10.0 mi North 4.6 mph - N/A   Overcast
10:35 AM 73.4 °F - 71.6 °F 94% 29.89 in 10.0 mi NNE 3.5 mph - N/A   Overcast
10:55 AM 73.4 °F - 71.6 °F 94% 29.89 in 10.0 mi North 5.8 mph - N/A   Overcast
11:15 AM 73.4 °F - 71.6 °F 94% 29.89 in 10.0 mi NW 4.6 mph - N/A   Overcast
11:35 AM 73.4 °F - 69.8 °F 88% 29.90 in 10.0 mi NNW 4.6 mph - N/A   Overcast
12:15 PM 75.2 °F - 69.8 °F 83% 29.90 in 10.0 mi North 4.6 mph - N/A   Overcast
12:35 PM 77.0 °F - 69.8 °F 78% 29.90 in 10.0 mi North 4.6 mph - N/A   Overcast
12:55 PM 77.0 °F - 69.8 °F 78% 29.90 in 10.0 mi North 4.6 mph - N/A   Overcast
1:15 PM 77.0 °F - 69.8 °F 78% 29.90 in 10.0 mi North 5.8 mph - N/A   Overcast
1:35 PM 78.8 °F - 69.8 °F 74% 29.89 in 10.0 mi North 5.8 mph - N/A   Overcast
1:55 PM 78.8 °F - 69.8 °F 74% 29.89 in 10.0 mi NNW 6.9 mph - N/A   Mostly Cloudy
2:15 PM 78.8 °F - 69.8 °F 74% 29.89 in 10.0 mi North 6.9 mph - N/A   Overcast
2:35 PM 78.8 °F - 69.8 °F 74% 29.88 in 10.0 mi North 5.8 mph - N/A   Overcast
2:55 PM 78.8 °F - 69.8 °F 74% 29.88 in 10.0 mi NNW 5.8 mph - N/A   Mostly Cloudy
3:15 PM 80.6 °F 83.9 °F 69.8 °F 70% 29.88 in 10.0 mi NW 5.8 mph - N/A   Mostly Cloudy
3:35 PM 80.6 °F 83.9 °F 69.8 °F 70% 29.87 in 10.0 mi NNW 5.8 mph - N/A   Mostly Cloudy
3:55 PM 80.6 °F 83.9 °F 69.8 °F 70% 29.87 in 10.0 mi NW 5.8 mph - N/A   Mostly Cloudy
4:15 PM 80.6 °F 83.9 °F 69.8 °F 70% 29.87 in 10.0 mi North 6.9 mph - N/A   Mostly Cloudy
4:35 PM 80.6 °F 83.2 °F 68.0 °F 65% 29.87 in 10.0 mi NNW 4.6 mph - N/A   Scattered Clouds
4:55 PM 82.4 °F 85.4 °F 68.0 °F 62% 29.87 in 10.0 mi North 6.9 mph - N/A   Mostly Cloudy
5:15 PM 80.6 °F 83.2 °F 68.0 °F 65% 29.87 in 10.0 mi North 4.6 mph - N/A   Mostly Cloudy
5:35 PM 80.6 °F 83.2 °F 68.0 °F 65% 29.88 in 10.0 mi NNW 3.5 mph - N/A   Scattered Clouds
5:55 PM 80.6 °F 83.2 °F 68.0 °F 65% 29.89 in 10.0 mi WNW 4.6 mph - N/A   Clear
6:15 PM 80.6 °F 83.2 °F 68.0 °F 65% 29.89 in 10.0 mi North 3.5 mph - N/A   Scattered Clouds
6:35 PM 80.6 °F 83.2 °F 68.0 °F 65% 29.90 in 10.0 mi North 3.5 mph - N/A   Mostly Cloudy
6:55 PM 78.8 °F - 68.0 °F 69% 29.90 in 10.0 mi NW 3.5 mph - N/A   Scattered Clouds
7:15 PM 77.0 °F - 68.0 °F 74% 29.91 in 10.0 mi Calm Calm - N/A   Clear
7:35 PM 73.4 °F - 69.8 °F 88% 29.91 in 10.0 mi Calm Calm - N/A   Clear
7:55 PM 71.6 °F - 71.6 °F 100% 29.92 in 10.0 mi Calm Calm - N/A   Clear
8:15 PM 71.6 °F - 71.6 °F 100% 29.93 in 10.0 mi Calm Calm - N/A   Clear
8:35 PM 69.8 °F - 69.8 °F 100% 29.94 in 10.0 mi Calm Calm - N/A   Clear
8:55 PM 69.8 °F - 69.8 °F 100% 29.95 in 10.0 mi Calm Calm - N/A   Clear
9:15 PM 69.8 °F - 69.8 °F 100% 29.96 in 10.0 mi Calm Calm - N/A   Clear
9:35 PM 68.0 °F - 68.0 °F 100% 29.96 in 10.0 mi Calm Calm - N/A   Clear
10:15 PM 68.0 °F - 68.0 °F 100% 29.97 in 5.0 mi Calm Calm - N/A   Clear
10:35 PM 68.0 °F - 68.0 °F 100% 29.97 in 7.0 mi Calm Calm - N/A   Clear
10:55 PM 66.2 °F - 66.2 °F 100% 29.97 in 7.0 mi Calm Calm - N/A   Clear
11:15 PM 64.4 °F - 64.4 °F 100% 29.97 in 7.0 mi Calm Calm - N/A   Clear
11:35 PM 64.4 °F - 64.4 °F 100% 29.98 in 7.0 mi Calm Calm - N/A   Clear
11:55 PM 64.4 °F - 64.4 °F 100% 29.98 in 7.0 mi Calm Calm - N/A   Clear